RH
100 100 100 91 99 100 100 100 100 69 69 54 50 45 25 27 32 37 39 45 51 56 50 44 38 27 23 41 48 44 41 45 43 42 44 49 54 44 43 48 48 42 26 31 38
100 100 100 100 88 85 100 100 100 100 72 73 67 63 62 41 42 39 49 49 47 40 40 39 32 40 55 60 58 52 54 48 45 44 40 44 46 40 36 44 56 56 43 32 26
65 100 100 100 100 95 93 100 100 100 100 94 96 67 76 84 82 79 74 66 70 64 69 60 71 65 76 70 65 67 63 56 54 50 41 39 44 42 34 39 60 59 47 37 36
80 79 99 100 100 100 100 100 100 100 100 100 100 99 83 88 86 86 99 95 98 100 100 100 99 100 100 96 82 74 64 56 49 47 42 37 41 38 33 34 36 56 58 53 36
100 81 86 89 99 100 100 100 98 100 100 100 100 100 91 100 100 100 100 100 100 100 100 100 100 100 98 92 82 68 54 48 42 39 38 37 36 37 29 27 26 27 36 48 48
100 100 94 80 98 100 100 100 95 98 100 100 100 100 100 100 100 100 100 100 100 100 95 100 100 99 92 78 69 58 49 34 26 21 19 18 18 20 24 29 31 30 29 30 40
100 100 94 82 85 94 100 100 100 95 100 100 100 100 100 100 100 100 100 100 100 100 100 100 100 92 67 63 63 56 34 25 21 19 16 15 15 14 14 15 17 21 25 26 28
87 83 96 100 91 85 97 100 100 100 90 96 100 100 100 100 100 100 100 100 100 100 100 100 91 66 62 52 46 40 28 23 21 20 16 14 15 17 14 14 13 13 13 18 24
83 91 90 57 58 82 92 100 99 100 100 95 98 100 100 100 100 100 100 100 100 100 100 94 69 66 58 42 39 31 26 24 23 19 17 20 18 18 15 14 17 16 13 11 12
70 58 54 50 51 52 79 91 100 98 93 83 70 100 100 100 100 100 100 97 100 100 100 86 65 66 52 48 41 33 27 25 24 19 24 27 25 26 29 25 22 18 16 14 12
50 56 58 60 57 54 59 68 81 98 76 78 48 75 100 100 100 100 100 100 100 88 95 84 60 58 63 53 46 38 30 30 28 19 26 27 28 39 33 22 16 14 12 13 15
49 60 67 66 64 58 54 62 63 70 69 85 79 49 89 100 100 100 100 100 100 98 84 90 52 60 61 57 53 43 38 34 29 22 24 27 25 40 33 18 12 11 10 9 9
48 49 44 45 47 52 49 47 39 52 61 76 77 55 58 97 100 100 100 100 100 99 96 92 59 58 64 58 53 44 42 33 29 24 26 26 29 38 33 20 14 10 9 8 8
30 19 18 15 15 21 25 21 16 20 35 50 64 48 43 62 91 100 100 100 100 100 100 85 73 56 66 57 54 48 44 34 30 26 26 26 34 30 42 29 17 12 10 9 8
11 8 9 8 9 10 12 11 9 11 11 22 40 47 42 38 82 100 100 100 100 100 100 100 97 64 72 61 54 51 45 41 33 28 28 23 34 27 42 45 28 18 12 11 9
7 7 7 7 8 10 10 9 8 8 7 12 17 32 40 38 46 90 96 100 100 100 100 100 97 77 70 62 55 52 51 43 37 31 30 26 36 28 35 40 40 25 17 13 12
6 6 6 6 9 8 10 9 7 6 9 11 14 14 29 35 36 61 94 98 100 100 100 100 99 74 68 62 58 60 57 47 40 34 32 30 39 40 42 43 42 39 32 25 16
4 4 4 5 6 6 7 7 5 9 11 12 13 14 17 27 33 41 83 100 91 100 100 100 92 69 64 62 65 65 60 53 48 40 35 33 41 42 43 51 47 40 39 39 41
3 3 4 6 5 5 5 4 6 11 10 13 14 14 13 18 30 40 58 98 97 100 100 100 85 63 62 66 71 71 66 56 52 46 39 35 37 47 43 43 44 42 37 33 33
4 4 6 5 4 5 4 5 8 11 11 12 14 14 14 16 27 35 48 94 99 100 100 100 91 66 61 64 74 80 75 57 56 52 43 40 39 41 46 49 46 42 40 36 33
4 5 5 5 5 4 5 7 9 11 11 12 15 14 13 16 29 34 43 96 100 100 100 100 98 74 68 72 86 83 76 58 53 53 52 48 43 42 44 47 52 50 43 39 41
3 4 3 5 5 5 7 10 9 9 10 11 14 14 15 16 28 34 50 78 100 100 100 100 100 87 78 82 81 80 75 57 55 68 76 59 57 49 54 56 54 50 46 44 45
2 3 2 4 6 7 8 8 8 9 10 11 14 16 17 17 25 36 56 78 100 98 100 100 100 98 86 80 80 83 86 70 58 56 69 83 81 66 69 73 71 52 48 48 44
2 3 3 4 7 7 8 8 10 11 11 13 14 18 19 18 23 34 63 87 100 100 100 100 100 100 97 89 84 85 86 66 45 50 78 86 80 91 94 92 74 65 58 56 51
3 3 3 4 6 7 7 8 11 11 10 14 15 22 24 22 24 32 55 94 100 100 100 100 100 100 100 91 86 80 75 68 58 65 75 100 91 83 95 100 99 79 72 67 64
3 3 3 4 6 8 7 8 11 10 11 17 20 28 32 29 29 36 44 81 100 100 100 100 100 100 100 95 92 85 84 78 72 80 82 90 97 93 91 97 88 81 67 63 62
4 4 3 4 6 8 9 8 9 10 13 19 20 21 28 32 32 40 43 69 98 100 100 100 100 100 100 98 93 88 99 100 97 92 93 94 96 90 91 92 83 74 62 58 56
Wind_Speed
38 40 41 40 36 37 36 33 33 30 29 28 31 34 40 43 46 49 49 50 50 49 49 48 50 49 47 42 38 37 37 38 36 34 34 35 35 33 28 26 28 31 46 53 56
38 40 39 44 50 44 40 40 36 33 31 30 30 32 33 37 39 41 44 45 44 44 43 44 46 44 40 38 36 34 34 35 36 37 37 39 40 38 34 29 31 34 34 39 47
44 44 45 42 43 48 49 43 45 39 34 32 31 31 34 34 36 38 41 41 41 41 41 41 40 39 38 36 36 36 37 35 36 37 38 40 41 42 40 35 36 38 39 37 38
41 46 53 52 48 45 52 54 45 46 42 38 36 34 33 34 37 36 38 41 42 42 41 40 38 36 37 37 38 38 37 38 38 39 40 42 44 44 44 44 43 42 45 44 40
54 47 46 59 58 55 50 54 57 52 49 44 42 40 35 38 38 40 42 44 44 44 43 42 39 38 38 39 39 39 39 39 40 41 43 45 46 47 47 49 51 48 48 50 47
68 62 59 55 67 67 64 57 60 61 55 53 49 48 46 46 46 45 46 47 45 44 44 44 42 38 37 38 38 38 41 41 43 43 46 47 50 52 51 54 55 54 54 53 52
67 66 62 61 64 73 73 70 65 67 67 58 58 55 54 53 53 51 51 50 49 48 47 45 42 41 40 39 40 41 43 43 42 44 45 46 50 53 52 58 60 61 59 58 58
58 58 65 70 66 70 77 78 75 73 74 71 64 63 63 61 59 58 57 55 53 53 50 47 46 43 42 42 43 43 44 43 42 44 44 45 47 48 50 56 60 63 65 66 65
59 65 69 64 63 68 75 81 84 81 80 81 75 69 70 68 68 63 63 61 59 56 53 50 47 45 43 44 43 44 45 43 43 42 43 44 45 48 49 52 57 61 65 68 71
66 66 65 61 60 64 74 83 87 88 88 89 85 79 77 76 74 72 68 66 64 60 56 53 50 47 46 45 45 46 45 44 42 41 41 41 44 45 48 50 54 56 60 66 71
67 66 66 65 64 63 69 77 87 93 91 93 94 89 85 82 79 77 75 70 67 64 60 56 52 52 48 47 47 47 45 44 42 41 41 40 40 44 45 48 51 56 59 60 65
71 70 71 71 72 72 74 76 82 89 93 98 99 99 95 91 85 84 81 76 72 71 63 58 57 54 52 49 48 49 46 44 42 41 40 41 39 40 42 44 44 50 56 59 60
83 83 85 85 85 84 88 90 91 93 95 102 107 107 106 102 93 88 86 83 78 72 69 65 61 57 54 51 50 50 47 43 41 40 39 39 39 38 36 40 41 41 45 50 54
94 91 86 83 80 81 84 88 86 92 101 98 112 112 116 110 102 95 93 88 82 77 76 69 63 60 57 54 52 51 47 42 42 39 37 36 38 36 32 37 36 33 32 38 43
87 80 76 72 69 69 71 75 75 80 87 90 110 119 118 117 108 103 100 93 88 84 78 75 69 65 60 57 54 53 47 44 43 40 37 36 37 37 31 35 32 30 25 28 32
80 74 71 69 63 65 67 71 70 71 59 75 94 116 123 122 116 112 105 97 93 88 82 78 73 67 62 60 57 54 49 46 44 42 38 36 36 36 29 32 31 26 20 21 25
74 70 66 64 62 63 65 69 65 56 59 64 78 99 121 127 124 120 110 101 97 88 80 76 76 70 66 61 58 56 53 46 44 43 39 36 35 33 29 26 27 24 20 16 16
70 65 60 55 61 62 64 65 54 48 59 66 73 86 104 121 127 125 117 107 103 94 85 79 78 72 67 63 62 59 53 48 46 44 40 36 35 33 29 25 23 20 19 16 13
57 51 48 48 54 55 59 56 47 52 61 65 71 81 90 104 126 129 120 112 104 97 89 82 80 75 70 67 65 60 55 53 47 44 42 37 35 35 33 28 27 25 21 19 17
46 41 43 46 46 48 48 45 49 55 61 66 71 81 86 97 120 128 123 113 105 98 93 88 85 80 75 71 65 62 59 54 49 45 44 42 38 34 36 35 33 32 29 26 24
44 41 44 41 40 40 37 40 51 61 62 64 70 79 84 95 115 125 125 117 111 103 98 92 89 84 78 71 69 66 61 57 52 45 46 44 42 38 36 39 39 37 35 33 33
43 44 40 39 35 34 35 45 54 62 60 64 70 77 85 94 111 122 124 120 114 107 98 94 91 88 82 78 72 68 63 58 53 49 47 45 46 42 39 40 41 41 40 41 41
39 40 35 35 32 32 38 45 49 57 59 62 69 75 82 90 106 119 124 121 115 108 100 99 93 90 84 78 72 68 66 63 58 52 48 46 48 44 43 45 46 44 44 45 46
35 34 34 32 34 35 38 42 49 56 57 62 66 71 81 90 101 115 122 121 115 110 103 99 93 91 86 82 80 75 73 66 57 52 55 53 50 48 45 47 49 50 49 50 50
32 31 32 32 35 36 38 42 51 55 58 60 64 68 79 89 99 112 121 120 117 111 106 101 96 95 91 85 80 75 71 66 62 61 58 61 55 51 51 51 55 56 55 56 57
30 29 29 29 34 35 36 42 51 55 55 59 65 71 81 88 96 108 118 122 118 112 108 102 98 96 92 86 82 77 73 69 67 66 65 62 60 58 54 59 60 61 62 63 63
27 27 25 28 33 34 39 46 54 56 58 68 75 78 81 88 98 107 116 119 119 115 108 102 100 97 92 87 83 75 74 74 73 71 69 65 68 61 63 63 65 66 67 68 67
Wind_Direction
278 274 271 274 275 275 270 270 274 276 272 260 249 244 234 229 229 231 232 234 236 237 239 242 242 240 234 227 227 229 232 236 238 240 238 237 245 248 250 250 248 245 241 235 238
271 269 265 267 269 267 268 264 264 264 267 260 256 246 240 232 227 227 227 226 227 228 228 226 227 223 221 224 226 230 233 236 240 243 244 246 249 249 251 251 256 253 244 242 239
274 263 264 259 262 261 262 262 260 257 252 253 258 250 237 231 227 221 221 218 215 216 217 217 217 219 222 227 231 236 239 241 242 245 246 247 249 252 252 249 249 255 255 245 242
290 276 260 259 256 256 257 258 255 259 250 242 244 253 232 226 220 215 214 213 211 212 215 216 216 224 230 233 234 237 240 244 248 251 252 251 252 251 253 255 250 249 253 253 247
287 283 273 256 257 254 250 254 253 251 252 242 237 238 236 221 219 215 213 215 214 215 215 216 223 230 234 236 237 240 245 251 254 254 256 257 257 257 254 254 255 253 250 252 252
282 283 278 261 252 253 250 248 251 248 248 245 234 230 228 228 223 220 216 216 216 219 219 220 227 231 235 238 243 244 253 256 258 258 259 259 258 256 254 255 255 254 252 250 249
271 274 277 276 251 248 247 245 244 246 244 239 237 229 225 225 226 222 219 219 220 222 223 225 227 230 236 241 246 249 255 258 260 263 263 262 261 259 257 255 252 252 252 252 250
275 277 271 266 263 246 244 243 244 243 243 239 233 231 227 224 225 224 222 222 225 226 226 225 228 232 238 242 246 251 256 259 263 267 268 267 265 264 257 256 255 254 252 250 248
283 278 277 269 258 245 242 241 241 242 240 237 233 232 229 226 226 224 224 225 225 226 225 227 228 233 238 242 248 251 255 259 266 270 272 271 270 268 264 260 258 255 252 251 249
287 283 279 272 262 249 240 239 239 239 240 234 232 229 228 227 227 225 225 226 225 222 225 227 230 234 237 243 248 253 256 260 266 268 272 276 275 270 269 267 264 260 254 251 249
288 283 277 271 264 255 247 240 239 236 237 234 231 230 227 226 227 226 225 224 226 224 223 227 229 234 238 243 247 253 257 261 267 267 271 276 277 271 272 270 269 268 264 256 250
293 286 279 273 267 260 252 247 241 238 233 230 230 229 226 226 225 225 225 224 224 225 224 225 229 232 236 241 248 252 257 261 267 267 272 274 278 273 279 280 276 273 264 259 251
296 289 283 276 269 264 260 255 246 238 232 229 228 226 228 224 222 225 224 225 225 224 225 225 228 230 235 240 246 252 257 260 262 265 272 276 281 276 282 286 287 281 268 260 254
298 292 286 280 274 266 261 257 250 242 234 226 229 225 225 223 221 222 223 223 225 224 225 225 227 229 233 237 244 249 255 259 260 264 272 279 283 282 286 290 294 293 276 263 254
298 292 285 279 274 267 259 255 251 244 237 227 228 225 224 222 222 220 222 220 223 223 224 226 224 225 230 235 241 247 252 256 258 262 271 279 280 287 285 291 300 303 286 269 259
297 291 284 279 273 265 257 254 249 244 237 230 226 225 221 221 220 222 220 218 222 222 223 226 225 225 229 234 240 245 249 253 257 259 268 277 280 287 284 287 294 302 304 279 264
295 290 283 278 269 263 256 251 249 243 234 227 224 222 220 219 217 221 220 218 221 222 222 224 223 223 227 232 239 243 247 252 256 258 263 273 277 283 287 289 290 295 303 310 286
294 288 282 273 264 258 252 251 247 236 229 224 219 220 219 217 216 218 219 219 219 219 219 221 221 220 224 227 233 240 245 250 255 258 259 266 271 275 281 283 285 287 291 295 301
294 288 278 266 260 257 250 248 242 230 224 218 216 218 219 215 214 216 217 218 218 219 218 219 221 221 223 227 232 238 242 247 253 258 259 260 266 268 273 275 278 282 285 287 288
295 286 269 262 261 256 251 239 231 226 220 215 213 214 214 213 212 214 215 217 217 218 219 219 221 221 221 224 230 236 240 245 249 255 258 258 260 264 266 271 274 276 280 284 285
294 280 269 264 260 256 249 234 224 223 216 211 210 212 213 209 209 211 212 214 216 217 217 218 221 221 222 224 228 233 238 242 246 252 253 255 259 261 266 268 271 275 277 279 282
293 275 272 261 256 250 237 223 218 222 213 210 208 209 209 209 207 209 210 213 216 216 216 219 221 222 221 223 227 232 237 241 245 246 249 253 258 260 263 268 271 274 277 278 279
292 278 269 255 250 241 231 226 220 220 211 209 206 206 208 209 207 206 208 212 215 217 217 219 221 223 224 225 229 232 236 239 242 245 248 251 255 260 263 266 269 272 274 278 279
292 275 263 247 238 233 229 223 214 213 208 209 206 205 206 208 207 206 207 210 213 216 217 219 221 223 224 223 225 228 233 237 244 247 248 252 254 258 262 264 268 271 274 277 279
290 271 260 242 233 229 224 215 212 212 203 206 203 203 206 207 206 206 206 209 212 215 217 218 220 223 226 226 229 232 236 241 243 245 248 253 255 257 259 263 267 271 274 276 279
289 270 259 242 229 226 225 213 210 211 200 200 200 202 205 206 206 205 206 209 211 214 217 218 220 223 225 227 230 232 237 241 244 246 250 254 257 257 262 262 265 269 272 274 277
290 269 256 235 226 223 219 213 208 206 200 199 201 201 204 204 205 206 207 208 212 214 216 219 220 223 225 228 230 233 237 239 243 246 249 253 256 259 261 264 266 269 272 274 276